Boulder Muni, Boulder, CO, CO

10:18 PM MST on November 19, 2019 (GMT -0700)
Boulder Muni, Boulder, CO

Weather History for KBDU - October, 2019

Change the Weather History Date:

Monday, October 21, 2019

  Actual Average Record
Temperature  
Mean Temperature 43 °F -  
Max Temperature 52 °F - 77 °F (2016)
Min Temperature 34 °F - 30 °F (2013)
Degree Days  
Heating Degree Days 22    
Month to date heating degree days 295  
Cooling Degree Days 0    
Month to date cooling degree days 0  
Moisture  
Dew Point 16 °F    
Average Humidity 46    
Maximum Humidity 70    
Minimum Humidity 21    
Precipitation  
Precipitation 0.00 in - 0.18 in (2015)
Snow  
Snow 0.00 in - - ()
Snow Depth 0.00 in    
Sea Level Pressure  
Sea Level Pressure 29.98 in    
Wind  
Wind Speed 11 mph (WNW)    
Max Wind Speed 21 mph    
Max Gust Speed 30 mph    
Visibility 10 miles    
Events      
T = Trace of Precipitation, MM = Missing Value Source: NWS Daily Summary

Daily Weather History Graph

Daily Weather History Graph

Search for Another Location

Airport or City:

Astronomy

Oct. 21, 2019 Rise Set
Actual Time 7:17 AM MDT 6:12 PM MDT
Civil Twilight 6:50 AM MDT 6:40 PM MDT
Nautical Twilight 6:18 AM MDT 7:11 PM MDT
Astronomical Twilight 5:47 AM MDT 7:43 PM MDT
Moon No Moon Rise 2:37 PM MDT (10/21)
Length of Visible Light 11h 50m
Length of Day
10h 55m
Waning Gibbous, 47% of the Moon is Illuminated
Oct 21
Waning Gibbous
Oct 27
New
Nov 4
First Quarter
Nov 12
Full
Nov 19
Last Quarter

Hourly Weather History & Observations

Time (MDT) Temp. Windchill Dew Point Humidity Pressure Visibility Wind Dir Wind Speed Gust Speed Precip Events Conditions
12:12 AM 41.0 °F 34.7 °F 15.8 °F 36% 29.90 in 10.0 mi NW 10.4 mph 16.1 mph N/A   Scattered Clouds
12:30 AM 41.0 °F 32.8 °F 14.0 °F 33% 29.89 in 10.0 mi WNW 16.1 mph 21.9 mph N/A   Scattered Clouds
12:54 AM 41.0 °F 32.2 °F 12.2 °F 31% 29.89 in 10.0 mi WNW 18.4 mph 25.3 mph N/A   Clear
1:11 AM 42.8 °F 34.8 °F 12.2 °F 29% 29.89 in 10.0 mi NW 17.3 mph 31.1 mph N/A   Clear
1:29 AM 41.0 °F 35.2 °F 12.2 °F 31% 29.89 in 10.0 mi WNW 9.2 mph 27.6 mph N/A   Clear
1:53 AM 41.0 °F 33.1 °F 12.2 °F 31% 29.89 in 10.0 mi West 15.0 mph 21.9 mph N/A   Scattered Clouds
2:12 AM 41.0 °F 32.2 °F 12.2 °F 31% 29.89 in 10.0 mi WNW 18.4 mph 28.8 mph N/A   Scattered Clouds
2:30 AM 41.0 °F 32.2 °F 12.2 °F 31% 29.89 in 10.0 mi NW 18.4 mph 24.2 mph N/A   Scattered Clouds
2:48 AM 41.0 °F 33.9 °F 12.2 °F 31% 29.90 in 10.0 mi WNW 12.7 mph 23.0 mph N/A   Scattered Clouds
3:12 AM 41.0 °F 33.5 °F 10.4 °F 29% 29.89 in 10.0 mi WNW 13.8 mph 21.9 mph N/A   Scattered Clouds
3:30 AM 41.0 °F 32.2 °F 10.4 °F 29% 29.88 in 10.0 mi WNW 18.4 mph 26.5 mph N/A   Clear
3:48 AM 41.0 °F 32.5 °F 10.4 °F 29% 29.88 in 10.0 mi WNW 17.3 mph 25.3 mph N/A   Clear
4:11 AM 41.0 °F 34.3 °F 10.4 °F 29% 29.87 in 10.0 mi WNW 11.5 mph 19.6 mph N/A   Clear
4:29 AM 41.0 °F 33.5 °F 10.4 °F 29% 29.87 in 10.0 mi NW 13.8 mph 23.0 mph N/A   Clear
4:53 AM 41.0 °F 33.9 °F 10.4 °F 29% 29.87 in 10.0 mi NW 12.7 mph 20.7 mph N/A   Clear
5:12 AM 41.0 °F 35.8 °F 12.2 °F 31% 29.88 in 10.0 mi West 8.1 mph - N/A   Clear
5:30 AM 41.0 °F 35.2 °F 12.2 °F 31% 29.88 in 10.0 mi NNW 9.2 mph 21.9 mph N/A   Clear
5:48 AM 41.0 °F 33.1 °F 12.2 °F 31% 29.88 in 10.0 mi WNW 15.0 mph 19.6 mph N/A   Clear
6:12 AM 41.0 °F 33.5 °F 12.2 °F 31% 29.89 in 10.0 mi NW 13.8 mph 23.0 mph N/A   Clear
6:30 AM 39.2 °F 31.2 °F 12.2 °F 33% 29.89 in 10.0 mi WNW 13.8 mph 17.3 mph N/A   Clear
6:53 AM 39.2 °F 32.5 °F 12.2 °F 33% 29.90 in 10.0 mi WNW 10.4 mph 18.4 mph N/A   Clear
7:12 AM 35.6 °F 28.6 °F 14.0 °F 41% 29.91 in 10.0 mi ENE 9.2 mph - N/A   Clear
7:30 AM 35.6 °F 29.2 °F 14.0 °F 41% 29.92 in 10.0 mi ESE 8.1 mph - N/A   Clear
7:48 AM 37.4 °F 34.9 °F 14.0 °F 38% 29.93 in 10.0 mi ENE 3.5 mph - N/A   Clear
8:12 AM 37.4 °F 34.9 °F 15.8 °F 41% 29.94 in 10.0 mi SSE 3.5 mph - N/A   Clear
8:48 AM 41.0 °F 38.0 °F 17.6 °F 39% 29.95 in 10.0 mi ESE 4.6 mph - N/A   Clear
9:12 AM 41.0 °F 38.0 °F 15.8 °F 36% 29.96 in 10.0 mi ESE 4.6 mph - N/A   Clear
9:29 AM 42.8 °F 41.1 °F 14.0 °F 31% 29.96 in 10.0 mi East 3.5 mph - N/A   Clear
9:52 AM 42.8 °F 40.1 °F 14.0 °F 31% 29.96 in 10.0 mi East 4.6 mph - N/A   Clear
10:11 AM 44.6 °F - 14.0 °F 29% 29.96 in 10.0 mi Calm Calm - N/A   Clear
10:30 AM 46.4 °F - 14.0 °F 27% 29.96 in 10.0 mi Calm Calm - N/A   Clear
10:48 AM 46.4 °F - 14.0 °F 27% 29.95 in 10.0 mi Calm Calm - N/A   Clear
11:30 AM 50.0 °F - 12.2 °F 22% 29.95 in 10.0 mi West 3.5 mph - N/A   Scattered Clouds
11:54 AM 51.8 °F - 12.2 °F 21% 29.95 in 10.0 mi West 16.1 mph 23.0 mph N/A   Scattered Clouds
12:12 PM 51.8 °F - 12.2 °F 21% 29.95 in 10.0 mi West 18.4 mph 26.5 mph N/A   Clear
12:30 PM 50.0 °F - 12.2 °F 22% 29.96 in 10.0 mi West 12.7 mph 23.0 mph N/A   Scattered Clouds
12:54 PM 48.2 °F - 12.2 °F 24% 29.95 in 10.0 mi West 19.6 mph 23.0 mph N/A   Scattered Clouds
1:12 PM 50.0 °F - 12.2 °F 22% 29.96 in 10.0 mi West 17.3 mph 24.2 mph N/A   Scattered Clouds
1:30 PM 51.8 °F - 14.0 °F 22% 29.95 in 10.0 mi WSW 15.0 mph 24.2 mph N/A   Scattered Clouds
1:54 PM 50.0 °F - 14.0 °F 24% 29.95 in 10.0 mi West 17.3 mph 25.3 mph N/A   Mostly Cloudy
2:12 PM 50.0 °F - 14.0 °F 24% 29.95 in 10.0 mi West 23.0 mph 28.8 mph N/A   Mostly Cloudy
2:30 PM 51.8 °F - 14.0 °F 22% 29.96 in 10.0 mi WNW 17.3 mph 21.9 mph N/A   Scattered Clouds
2:54 PM 51.8 °F - 14.0 °F 22% 29.96 in 10.0 mi NW 18.4 mph 27.6 mph N/A   Scattered Clouds
3:13 PM 51.8 °F - 17.6 °F 26% 29.97 in 10.0 mi NW 13.8 mph 20.7 mph N/A   Scattered Clouds
3:31 PM 51.8 °F - 15.8 °F 24% 29.98 in 10.0 mi WNW 16.1 mph 25.3 mph N/A   Clear
3:54 PM 50.0 °F - 15.8 °F 26% 29.99 in 10.0 mi West 20.7 mph 29.9 mph N/A   Clear
4:11 PM 51.8 °F - 15.8 °F 24% 30.00 in 10.0 mi WNW 17.3 mph 29.9 mph N/A   Clear
4:29 PM 51.8 °F - 14.0 °F 22% 30.01 in 10.0 mi WNW 15.0 mph 28.8 mph N/A   Clear
4:52 PM 50.0 °F - 17.6 °F 28% 30.01 in 10.0 mi NW 9.2 mph 20.7 mph N/A   Clear
5:12 PM 48.2 °F - 17.6 °F 30% 30.03 in 10.0 mi WNW 6.9 mph - N/A   Clear
5:30 PM 46.4 °F 41.9 °F 19.4 °F 34% 30.03 in 10.0 mi WNW 9.2 mph 20.7 mph N/A   Clear
5:48 PM 46.4 °F 39.8 °F 19.4 °F 34% 30.04 in 10.0 mi West 16.1 mph 21.9 mph N/A   Clear
6:13 PM 44.6 °F 39.7 °F 21.2 °F 39% 30.06 in 10.0 mi West 9.2 mph 16.1 mph N/A   Clear
6:31 PM 44.6 °F 42.2 °F 21.2 °F 39% 30.06 in 10.0 mi West 4.6 mph - N/A   Clear
6:49 PM 44.6 °F 40.7 °F 21.2 °F 39% 30.07 in 10.0 mi SW 6.9 mph - N/A   Clear
7:12 PM 42.8 °F 41.1 °F 21.2 °F 42% 30.08 in 10.0 mi SSW 3.5 mph - N/A   Scattered Clouds
7:30 PM 44.6 °F 43.1 °F 21.2 °F 39% 30.09 in 10.0 mi SW 3.5 mph - N/A   Mostly Cloudy
7:48 PM 42.8 °F - 21.2 °F 42% 30.09 in 10.0 mi Calm Calm - N/A   Overcast
8:12 PM 42.8 °F 41.1 °F 23.0 °F 46% 30.11 in 10.0 mi NW 3.5 mph - N/A   Overcast
8:30 PM 41.0 °F 36.4 °F 23.0 °F 49% 30.11 in 10.0 mi NE 6.9 mph - N/A   Mostly Cloudy
8:48 PM 39.2 °F - 23.0 °F 52% 30.12 in 10.0 mi Calm Calm - N/A   Scattered Clouds
9:12 PM 39.2 °F - 23.0 °F 52% 30.13 in 10.0 mi Calm Calm - N/A   Clear
9:30 PM 39.2 °F - 24.8 °F 56% 30.13 in 10.0 mi Calm Calm - N/A   Clear
9:48 PM 37.4 °F 34.9 °F 24.8 °F 60% 30.13 in 10.0 mi NE 3.5 mph - N/A   Scattered Clouds
10:12 PM 41.0 °F - 26.6 °F 57% 30.13 in 10.0 mi Calm Calm - N/A   Scattered Clouds
10:30 PM 37.4 °F 34.9 °F 24.8 °F 60% 30.14 in 10.0 mi East 3.5 mph - N/A   Scattered Clouds
10:48 PM 35.6 °F - 24.8 °F 65% 30.14 in 10.0 mi Calm Calm - N/A   Scattered Clouds
11:12 PM 37.4 °F - 26.6 °F 65% 30.14 in 10.0 mi Calm Calm - N/A   Clear
11:30 PM 35.6 °F 31.7 °F 24.8 °F 65% 30.15 in 10.0 mi WNW 4.6 mph - N/A   Clear
11:48 PM 35.6 °F 32.8 °F 26.6 °F 70% 30.15 in 10.0 mi WNW 3.5 mph - N/A   Clear